Location: Seven Kings
(51.5667°N, 0.1000°E)
Time: 03:28:58
(UTC+00:00)

BREEZE-M R/B - Pass Details

Date: 29 October 2020
Orbit: 309 x 4522 km, 49.7° (Epoch: 27 November)

Event Time Altitude Azimuth Distance (km) Brightness Sun altitude
Rises 17:44:51 0° 269° (W) 2,337 8.1 -11.0°
Reaches altitude 10° 17:46:26 10° 267° (W) 1,650 6.8 -11.2°
Maximum altitude 17:49:54 71° 182° (S) 723 3.4 -11.8°
Enters shadow 17:55:30 15° 101° (ESE) 2,682 5.7 -12.6°
